Terminal Aerodrome Forecast
Issued by NWS Flagstaff, AZ

Home | Current Version | Previous Version | Text Only | Print | Product List | Glossary On
Versions: 1 2 3 4 5 6 7 8 9 10 11 12 13 14
000
FTUS45 KFGZ 292300
TAFINW
TAF
KINW 292328Z 3000/3024 VRB05KT P6SM VCSH BKN070 OVC100
     FM300300 VRB05KT 5SM -SHRA SCT025 OVC040
     FM300700 10006KT 3SM -RA BR SCT010 OVC030=

USA.gov is the U.S. government's official web portal to all federal, state and local government web resources and services.